Regional Weather Roundup
Issued by NWS

Home | Current Version | Previous Version | Text Only | Print | Product List | Glossary Off
Versions: 1 2 3 4 5 6 7 8 9 10 11 12 13 14 15 16 17 18 19 20 21 22 23 24 25 26 27 28 29 30 31 32 33 34 35 36 37 38 39 40 41 42 43 44 45 46 47 48 49 50

000
ASUS43 KMPX 202210
RWRMN
WEATHER ROUNDUP FOR MINNESOTA
NATIONAL WEATHER SERVICE TWIN CITIES/CHANHASSEN MN
400 PM CST FRI JAN 20 2017


NOTE: "FAIR" INDICATES FEW OR NO CLOUDS BELOW 12,000 FEET WITH NO
SIGNIFICANT WEATHER AND/OR OBSTRUCTIONS TO VISIBILITY. N/A MEANS
CURRENT SKY AND/OR WEATHER CONDITIONS ARE NOT AVAILABLE.

MNZ060>063-068>070-202300-
   Twin Cities Metro

CITY           SKY/WX    TMP DP  RH WIND       PRES   REMARKS
TWIN CITIES    CLOUDY    36  34  92 SE7       29.56R FOG
ST PAUL        CLOUDY    36  36 100 SE7       29.58R FOG
CRYSTAL        CLOUDY    37  33  85 SE8       29.55R FOG
BLAINE         FOG       37  37 100 SE6       29.56R VSB 1
LAKEVILLE      CLOUDY    34  34 100 SE6       29.56R FOG     WCI  29
EDEN PRAIRIE   CLOUDY    37  34  89 SE9       29.54S FOG
SOUTH ST PAUL  CLOUDY    37  36  97 SE5       29.57R FOG
LAKE ELMO      CLOUDY    36  36 100 SE6       29.57R FOG
$$
MNZ001>005-007-008-013>017-022>024-027-028-202300-
   Northwest Minnesota

CITY           SKY/WX    TMP DP  RH WIND       PRES   REMARKS
BEMIDJI        CLOUDY    34  33  99 SE7       29.50R FOG     WCI  28
HALLOCK        CLOUDY    37  36  93 SE9       29.47S FOG
ROSEAU         DRIZZLE   37  32  81 SE6       29.50S
WARROAD        DRIZZLE   36  32  87 E7        29.51S
THIEF RVR FALL CLOUDY    35  34  96 E7        29.49R FOG     WCI  29
CROOKSTON      CLOUDY    36  36 100 SE8       29.48S FOG
FOSSTON        CLOUDY    36  34  93 SE7       29.48S
DETROIT LAKES  CLOUDY    34  34 100 SE10      29.47S FOG     WCI  26
MOORHEAD       CLOUDY    36  34  93 SE8       29.45F
PARK RAPIDS    FOG       35  32  88 SE8       29.49R VSB 1/2 WCI  29
MAHNOMEN       CLOUDY    35  33  92 SE8       29.47S WCI  29
$$
MNZ006-009>011-018-025>026-202300-
   North Central Minnesota

CITY           SKY/WX    TMP DP  RH WIND       PRES   REMARKS
BAUDETTE       LGT RAIN  36  35  96 SE8       29.51S FOG
FLAG ISLAND    LGT RAIN  36  34  93 CALM      29.52R VSB 1
INTL FALLS     LGT RAIN  37  34  89 SE7       29.55R
WASKISH        DRIZZLE   37  36  93 SE6       29.52S
BIG FORK       LGT RAIN  36  34  93 SE6       29.54R
LONGVILLE      CLOUDY    36  34  93 SE3       29.52S
GRAND RAPIDS   MIX PCPN  35  34  96 SE8       29.56R FOG     WCI  29
CRANE LAKE     LGT RAIN  36  36 100 CALM      29.60R
ORR            DRIZZLE   36  34  93 CALM      29.55R
COOK           DRIZZLE   37  36  93 CALM      29.57S
WALKER         CLOUDY    34  33  96 SE5       29.50S WCI  30
$$
MNZ012-019>021-037-202300-
   Northeast Minnesota

CITY           SKY/WX    TMP DP  RH WIND       PRES   REMARKS
DULUTH         LGT SNOW  34  34 100 E10       29.57F VSB 1   WCI  26
ELY            LGT RAIN  36  36 100 E3        29.59R
HIBBING        LGT RAIN  33  33 100 SE9       29.56S WCI  25
EVELETH        LGT RAIN  37  37  97 SE5       29.58S
DULUTH HARBOR  MIX PCPN  34  34 100 NE10      29.60F WCI  26
TWO HARBORS    LGT RAIN  37  32  81 E8        29.59S
SILVER BAY     LGT RAIN  36  36 100 NE6       29.60S
GRAND MARAIS     N/A     37  35  92 E3        29.65R
G MARAIS ARPRT CLOUDY    34  30  86 CALM      29.62S
$$
MNZ029>031-032-039>041-046>048-054>057-064-202300-
   West Central Minnesota

CITY           SKY/WX    TMP DP  RH WIND       PRES   REMARKS
FERGUS FALLS   CLOUDY    36  36 100 SE10      29.50R
WHEATON        CLOUDY    43  43 100 SE15      29.45S FOG
MORRIS         CLOUDY    36  34  93 SE12      29.46R FOG
ALEXANDRIA     CLOUDY    34  33  96 SE12      29.49R FOG     WCI  25
ELBOW LAKE     CLOUDY    34  34 100 SE12      29.47R FOG     WCI  25
WADENA         CLOUDY    34  34 100 SE8       29.48F FOG     WCI  27
GLENWOOD       FOG       34  34 100 E12       29.50R VSB 1/4 WCI  25
APPLETON       CLOUDY    36  34  93 SE12      29.47R FOG
BENSON         CLOUDY    37  34  87 S10       29.49R
ORTONVILLE     CLOUDY    36  34  93 SE13      29.44R FOG
MADISON        CLOUDY    37  37 100 SE14      29.45S FOG
WILLMAR        FOG       36  36 100 SE10      29.52R VSB 1/2
$$
MNZ033>034-036-042>043-049>051-058-059-202300-
   Central Minnesota

CITY           SKY/WX    TMP DP  RH WIND       PRES   REMARKS
ST CLOUD       FOG       35  35 100 E6        29.53R VSB 1/4 WCI  30
SAUK CENTRE    FOG       33  33 100 E6        29.50S VSB 3/4 WCI  28
PAYNESVILLE    FOG       34  34 100 SE7       29.52R VSB 3/4 WCI  28
AITKIN         CLOUDY    37  34  87 E3        29.53R FOG
PINE RIVER     CLOUDY    34  34 100 SE7       29.56R FOG     WCI  28
BRAINERD       CLOUDY    35  34  96 SE5       29.52F FOG     WCI  31
STAPLES        CLOUDY    34  34 100 E3        29.50S FOG
LONG PRAIRIE   FOG       34  32  93 E6        29.50S VSB 1   WCI  29
LITTLE FALLS   FOG       34  32  93 SE3       29.53S VSB 1/2
LITCHFIELD     FOG       36  36 100 SE8       29.53R VSB 1/4
BUFFALO        CLOUDY    36  34  95 E5        29.55R FOG
MAPLE LAKE     FOG       37  36  99 MISG      29.55R VSB 1/2
HUTCHINSON     FOG       35  35 100 SE7       29.54R VSB 3/4 WCI  29
$$
MNZ037-044-045-052-053-202300-
   East Central Minnesota

CITY           SKY/WX    TMP DP  RH WIND       PRES   REMARKS
PRINCETON      FOG       37  36  93 E5        29.55R VSB 3/4
MORA           CLOUDY    34  32  93 E6        29.57S FOG     WCI  29
CAMBRIDGE      FOG       37  36  93 E3        29.54R VSB 3/4
RUSH CITY      DRIZZLE   36  34  93 SE5       29.57R
MOOSE LAKE     CLOUDY    36  34  93 CALM      29.55R FOG
HINCKLEY       DRIZZLE   36  36 100 SE3       29.57R
CLOQUET        FOG       34  34 100 E6        29.56S VSB 1   WCI  29
MCGREGOR       CLOUDY    36  34  93 SE6       29.55S
$$
MNZ071>073-080-081-089-090-097-098-202300-
   Southwest Minnesota

CITY           SKY/WX    TMP DP  RH WIND       PRES   REMARKS
MONTEVIDEO     CLOUDY    36  36 100 S9        29.49S FOG
GRANITE FALLS  CLOUDY    37  36  96 E10       29.50R FOG
CANBY          CLOUDY    38  37  97 CALM      29.46R FOG
MARSHALL       CLOUDY    39  37  92 SE10      29.47R
REDWOOD FALLS  CLOUDY    36  34  92 SE9       29.50R FOG
OLIVIA         FOG       34  34 100 SE8       29.50S VSB 1/4 WCI  27
PIPESTONE      MIX PCPN  37  37 100 S10       29.42S VSB<1/4
WINDOM         CLOUDY    37  37 100 SE7       29.49R FOG
WORTHINGTON    FOG       37  37 100 S8        29.46F VSB 1
JACKSON        FOG       34  34 100 SE3       29.49S VSB 3/4
TRACY          CLOUDY    40  39  97 SE7       29.47S FOG
SLAYTON        FOG       36  36 100 SE13      29.46S VSB 1
$$
MNZ065>067-074>077-082>085-091>093-202300-
   South Central Minnesota

CITY           SKY/WX    TMP DP  RH WIND       PRES   REMARKS
MANKATO        MOCLDY    36  35  96 E7        29.54S
NEW ULM        CLOUDY    36  36 100 SE6       29.52F FOG
ST JAMES       CLOUDY    36  36 100 E7        29.52R FOG
FAIRMONT       FOG       36  35  96 SE7       29.51S VSB 1/2
GLENCOE        CLOUDY    36  37 100 SE6       29.54R FOG
FARIBAULT      CLOUDY    36  36 100 SE7       29.56R FOG
OWATONNA       FOG       36  34  93 E5        29.55S VSB 1/2
WASECA         CLOUDY    34  32  93 E6        29.54F FOG     WCI  29
ALBERT LEA     CLOUDY    36  36 100 SE6       29.53R FOG
$$
MNZ078>079-086>088-094>096-202300-
   Southeast Minnesota

CITY           SKY/WX    TMP DP  RH WIND       PRES   REMARKS
ROCHESTER      CLOUDY    34  34 100 SE5       29.56S FOG     WCI  30
RED WING       FOG       36  34  93 SE8       29.58R VSB 1/2
STANTON        CLOUDY    37  34  89 SE6       29.56R FOG
DODGE CENTER   FOG       34  34 100 CALM      29.55S VSB<1/4
WINONA         FOG       36  36 100 SE3       29.61R VSB 1/2
AUSTIN         FOG       34  32  93 SE3       29.54F VSB<1/4
PRESTON        FOG       34  33  97 E5        29.57S VSB 1/4 WCI  30
$$
ABBREVIATIONS USED IN REMARKS
   TC - TEMPERATURES IN CELSIUS
  WCI - WIND CHILL INDEX
   HX - HEAT INDEX
  VSB - VISIBILITY
$$



USA.gov is the U.S. government's official web portal to all federal, state and local government web resources and services.